Time,TemperatureF,DewpointF,PressureIn,WindDirection,WindDirectionDegrees,WindSpeedMPH,WindSpeedGustMPH,Humidity,HourlyPrecipIn,Conditions,Clouds,dailyrainin,SoftwareType,DateUTC
2013-10-16 00:00:00,52.7,50.7,30.09,NW,315,0.0,3.0,93,0.00,,,0.00,VWS V14.01,2013-10-16 05:00:00,
2013-10-16 01:00:00,52.7,50.7,30.09,NW,315,0.0,3.0,93,0.00,,,0.00,VWS V15.00,2013-10-16 06:00:00,
2013-10-16 02:00:00,52.6,49.5,30.11,NW,315,0.0,2.0,89,0.00,,,0.00,VWS V14.01,2013-10-16 07:00:00,
2013-10-16 03:00:00,52.6,49.5,30.11,NW,315,0.0,2.0,89,0.00,,,0.00,VWS V15.00,2013-10-16 08:00:00,
2013-10-16 04:00:00,51.3,47.0,30.09,NNE,22,3.0,6.0,85,0.00,,,0.00,VWS V14.01,2013-10-16 09:00:00,
2013-10-16 05:00:00,51.3,47.0,30.09,NNE,22,3.0,6.0,85,0.00,,,0.00,VWS V15.00,2013-10-16 10:00:00,
2013-10-16 06:00:00,47.2,44.1,30.10,NNE,22,1.5,9.0,89,0.00,,,0.00,VWS V14.01,2013-10-16 11:00:00,
2013-10-16 07:00:00,47.2,44.1,30.10,NNE,22,1.5,9.0,89,0.00,,,0.00,VWS V15.00,2013-10-16 12:00:00,
2013-10-16 08:00:00,43.9,42.3,30.12,NNE,22,0.0,4.0,94,0.00,,,0.00,VWS V14.01,2013-10-16 13:00:00,
2013-10-16 09:00:00,43.9,42.3,30.12,NNE,22,0.0,4.0,94,0.00,,,0.00,VWS V15.00,2013-10-16 14:00:00,
2013-10-16 10:00:00,46.8,40.3,30.15,NNE,22,1.5,8.0,78,0.00,,,0.00,VWS V14.01,2013-10-16 15:00:00,
2013-10-16 11:00:00,46.8,40.3,30.15,NNE,22,1.5,8.0,78,0.00,,,0.00,VWS V15.00,2013-10-16 16:00:00,
2013-10-16 12:00:00,51.7,41.9,30.12,NNE,22,4.5,10.0,69,0.00,,,0.00,VWS V14.01,2013-10-16 17:00:00,
2013-10-16 13:00:00,51.7,41.9,30.12,NNE,22,4.5,10.0,69,0.00,,,0.00,VWS V15.00,2013-10-16 18:00:00,
2013-10-16 14:00:00,56.1,43.7,30.06,NNE,22,3.0,8.0,63,0.00,,,0.00,VWS V14.01,2013-10-16 19:00:00,
2013-10-16 15:00:00,56.1,43.7,30.06,NNE,22,3.0,8.0,63,0.00,,,0.00,VWS V15.00,2013-10-16 20:00:00,
2013-10-16 16:00:00,59.0,46.4,30.03,NNE,22,1.5,9.0,63,0.00,,,0.00,VWS V14.01,2013-10-16 21:00:00,
2013-10-16 17:00:00,59.0,46.4,30.03,NNE,22,1.5,9.0,63,0.00,,,0.00,VWS V15.00,2013-10-16 22:00:00,
2013-10-16 18:00:00,58.1,48.4,30.03,NW,315,1.5,6.0,70,0.00,,,0.00,VWS V14.01,2013-10-16 23:00:00,
2013-10-16 19:00:00,58.1,48.4,30.03,NW,315,1.5,6.0,70,0.00,,,0.00,VWS V15.00,2013-10-17 00:00:00,
2013-10-16 20:00:00,54.6,48.6,30.05,NW,315,1.5,6.0,80,0.00,,,0.00,VWS V14.01,2013-10-17 01:00:00,
2013-10-16 21:00:00,54.6,48.6,30.05,NW,315,1.5,6.0,80,0.00,,,0.00,VWS V15.00,2013-10-17 02:00:00,
2013-10-16 22:00:00,52.0,46.4,30.07,NW,315,1.5,7.0,81,0.00,,,0.00,VWS V14.01,2013-10-17 03:00:00,
2013-10-16 23:00:00,52.0,46.4,30.07,NW,315,1.5,7.0,81,0.00,,,0.00,VWS V15.00,2013-10-17 04:00:00,